Philadelphia, PA

7:09 PM EST on February 07, 2016 (GMT -0500)
Northeast Philadelphia

Weather History for KPNE - March, 2013

Change the Weather History Date:

Saturday, March 16, 2013

  Actual Average Record
Temperature  
Mean Temperature 40 °F -  
Max Temperature 46 °F 47 °F 70 °F (2002)
Min Temperature 33 °F 31 °F 26 °F (1997)
Degree Days  
Heating Degree Days 26    
Moisture  
Dew Point 29 °F    
Average Humidity 79    
Maximum Humidity 93    
Minimum Humidity 49    
Precipitation  
Precipitation 0.12 in - - ()
Sea Level Pressure  
Sea Level Pressure 29.83 in    
Wind  
Wind Speed 8 mph (NE)    
Max Wind Speed 13 mph    
Max Gust Speed -    
Visibility 5 miles    
Events Fog , Rain , Snow , Thunderstorm    
Averages and records for this station are not official NWS values.
T = Trace of Precipitation, MM = Missing Value Source: NWS Daily Summary

Daily Weather History Graph

Daily Weather History Graph

Search for Another Location

Airport or City:

Trip Planner

Search our weather history database for the weather conditions in past years. The results will help you decide how hot, cold, wet, or windy it might be!

Date:

Astronomy

Mar. 16, 2013 Rise Set
Actual Time 7:09 AM EDT 7:08 PM EDT
Civil Twilight 6:42 AM EDT 7:35 PM EDT
Nautical Twilight 6:11 AM EDT 8:06 PM EDT
Astronomical Twilight 5:39 AM EDT 8:38 PM EDT
Moon 9:37 AM EDT (3/16) No Moon Set
Length of Visible Light 12h 52m
Length of Day
11h 58m
Waxing Crescent, 23% of the Moon is Illuminated
Mar 16
Waxing Crescent
Mar 19
First Quarter
Mar 27
Full
Apr 3
Last Quarter
Apr 10
New

Hourly Weather History & Observations

Time (EDT) Temp. Windchill Dew Point Humidity Pressure Visibility Wind Dir Wind Speed Gust Speed Precip Events Conditions
12:54 AM 46.0 °F 43.9 °F 30.0 °F 54% 29.81 in 10.0 mi NNW 4.6 mph - N/A   Overcast
1:54 AM 46.0 °F 41.4 °F 28.9 °F 51% 29.81 in 10.0 mi NW 9.2 mph - N/A   Overcast
2:54 AM 45.0 °F 39.7 °F 28.9 °F 53% 29.82 in 10.0 mi NNW 10.4 mph - N/A   Overcast
3:54 AM 43.0 °F 38.2 °F 27.0 °F 53% 29.83 in 10.0 mi NNW 8.1 mph - N/A   Overcast
4:54 AM 42.1 °F 37.7 °F 28.0 °F 58% 29.83 in 10.0 mi North 6.9 mph - N/A   Overcast
5:54 AM 39.9 °F 34.5 °F 25.0 °F 55% 29.84 in 10.0 mi North 8.1 mph - N/A   Overcast
6:54 AM 39.0 °F 34.0 °F 25.0 °F 57% 29.85 in 10.0 mi NE 6.9 mph - N/A   Overcast
7:54 AM 37.9 °F 30.9 °F 23.0 °F 55% 29.86 in 10.0 mi NE 10.4 mph - N/A   Overcast
8:54 AM 39.0 °F 33.4 °F 23.0 °F 53% 29.86 in 10.0 mi ENE 8.1 mph - N/A   Overcast
9:54 AM 39.0 °F 34.8 °F 21.0 °F 49% 29.86 in 10.0 mi ENE 5.8 mph - N/A   Overcast
10:19 AM 37.4 °F 32.8 °F 23.0 °F 56% 29.86 in 1.5 mi Variable 5.8 mph - 0.00 in Snow Light Snow
10:54 AM 37.9 °F 35.5 °F 24.1 °F 57% 29.87 in 10.0 mi NNE 3.5 mph - 0.00 in   Overcast
11:30 AM 35.6 °F 29.9 °F 26.6 °F 70% 29.86 in 2.5 mi East 6.9 mph - 0.00 in Snow Light Snow
11:54 AM 35.1 °F 30.1 °F 28.0 °F 76% 29.86 in 1.5 mi East 5.8 mph - 0.00 in Snow Light Snow
12:00 PM 33.8 °F 28.6 °F 28.4 °F 81% 29.86 in 0.8 mi ENE 5.8 mph - 0.00 in Snow Light Snow
12:17 PM 33.8 °F 27.0 °F 30.2 °F 87% 29.85 in 0.5 mi East 8.1 mph - 0.01 in Fog , Snow Snow
12:39 PM 33.8 °F 27.7 °F 30.2 °F 87% 29.84 in 1.8 mi East 6.9 mph - 0.03 in Snow Light Snow
12:43 PM 33.8 °F 29.6 °F 30.2 °F 87% 29.84 in 2.5 mi East 4.6 mph - 0.03 in Snow Light Snow
12:51 PM 33.8 °F 27.0 °F 30.2 °F 87% 29.83 in 3.0 mi ENE 8.1 mph - 0.03 in   Overcast
12:54 PM 33.1 °F 26.9 °F 30.9 °F 92% 29.83 in 3.0 mi ENE 6.9 mph - 0.03 in   Overcast
1:54 PM 34.0 °F 26.6 °F 30.9 °F 89% 29.82 in 8.0 mi ENE 9.2 mph - 0.00 in   Overcast
2:24 PM 33.8 °F 26.4 °F 30.2 °F 87% 29.81 in 8.0 mi NE 9.2 mph - 0.00 in   Overcast
2:32 PM 33.8 °F 24.8 °F 30.2 °F 87% 29.81 in 1.8 mi NE 12.7 mph - 0.00 in Snow Light Snow
2:48 PM 33.8 °F 25.8 °F 30.2 °F 87% 29.81 in 3.0 mi NE 10.4 mph - 0.00 in Snow Light Snow
2:49 PM 33.8 °F 26.4 °F 30.2 °F 87% 29.81 in 3.0 mi NE 9.2 mph - N/A Snow Light Snow
3:11 PM 33.8 °F 25.8 °F 32.0 °F 93% 29.79 in 3.0 mi NE 10.4 mph - 0.01 in Snow Light Snow
3:17 PM 33.8 °F 26.4 °F 30.2 °F 87% 29.79 in 2.5 mi ENE 9.2 mph - 0.01 in Snow Light Snow
3:25 PM 33.8 °F 25.3 °F 30.2 °F 87% 29.78 in 1.2 mi East 11.5 mph - 0.01 in Snow Light Snow
3:31 PM 33.8 °F 25.8 °F 30.2 °F 87% 29.77 in 2.0 mi East 10.4 mph - 0.02 in Snow Light Snow
3:35 PM 33.8 °F 26.4 °F 30.2 °F 87% 29.77 in 3.0 mi East 9.2 mph - 0.02 in Snow Light Snow
3:54 PM 34.0 °F 26.6 °F 30.9 °F 89% 29.80 in 8.0 mi NE 9.2 mph - 0.02 in Thunderstorm Overcast
4:14 PM 33.8 °F 25.8 °F 30.2 °F 87% 29.79 in 4.0 mi ENE 10.4 mph - 0.01 in Rain Light Rain
4:20 PM 33.8 °F 28.6 °F 30.2 °F 87% 29.79 in 2.5 mi ENE 5.8 mph - 0.02 in Rain Rain
4:26 PM 33.8 °F 27.7 °F 30.2 °F 87% 29.80 in 3.0 mi ENE 6.9 mph - 0.03 in Rain Light Rain
4:34 PM 33.8 °F 27.7 °F 30.2 °F 87% 29.80 in 2.5 mi NE 6.9 mph - 0.05 in Rain Rain
4:54 PM 33.1 °F 26.9 °F 30.9 °F 92% 29.80 in 4.0 mi ENE 6.9 mph - 0.06 in Rain Light Rain
5:54 PM 33.1 °F 26.1 °F 30.9 °F 92% 29.80 in 5.0 mi NE 8.1 mph - 0.01 in Rain Light Rain
6:54 PM 33.1 °F 26.1 °F 30.9 °F 92% 29.81 in 7.0 mi NE 8.1 mph - 0.00 in   Overcast
7:54 PM 33.1 °F 25.5 °F 30.9 °F 92% 29.84 in 4.0 mi NE 9.2 mph - N/A   Overcast
8:54 PM 33.1 °F 25.5 °F 30.9 °F 92% 29.88 in 3.0 mi NNE 9.2 mph - N/A   Overcast
9:16 PM 33.8 °F 28.6 °F 30.2 °F 87% 29.88 in 2.5 mi NNE 5.8 mph - N/A   Overcast
9:32 PM 33.8 °F 28.6 °F 30.2 °F 87% 29.89 in 3.0 mi NNE 5.8 mph - N/A   Overcast
9:54 PM 33.1 °F 30.0 °F 30.9 °F 92% 29.90 in 6.0 mi NNE 3.5 mph - N/A   Overcast
10:54 PM 34.0 °F 28.8 °F 30.9 °F 89% 29.94 in 8.0 mi North 5.8 mph - N/A   Overcast
11:54 PM 34.0 °F 29.8 °F 30.9 °F 89% 29.95 in 8.0 mi NNW 4.6 mph - N/A   Overcast